KAZSTSAT (43783 NORAD) Tracking and Keplerian Element Data

This shows tracking and keplerian element data for the satellite.

Feedback or suggestion? Click here.




ElementValue
Catalog43783
NameKAZSTSAT
Epoch Orbit3408
Epoch Day201.15883313
Epoch Year2019
RAAN272.6393
Inclination97.7575
Eccentricity0.0008078
Argument of Perigee204.2066
Mean Anonmoly155.8775
Mean Motion14.9360702
Decay Rate1.54E-06
L11 43783U 18099AB 19201.15883313 .00000154 00000-0 19947-4 0 9991
L22 43783 97.7575 272.6393 0008078 204.2066 155.8775 14.93607020 34087

Live tracking and technical data element details for KAZSTSAT (NORAD 43783). KAZSTSAT can be tracked NOW for your location showing map with azimuth and elevation plus other details from your city location.

Track the satellite on the map from your city or location and see movement details for azimuth, elevation, latitude, longitude, range, height, and movement on the map or in text.







IsCatalogInMostPopularTable: catalog: 43783, numindb: 88
Update: records affected: 1



GetName: 43783 KAZSTSAT

Hit Count: updated at: Sat, 20 Jul 2019 23:09:14 GMT